| time (UTC) | temp F | wind direction | speed MPH | gust MPH | rain 1hr in | rain 24hr in | rain mn in | humidity % | barometer mb |
| 20260901163314 | 69 | 41 | 2.0 | 6.0 | 0.00 | 0.13 | 0.09 | 79 | 1027.5 |
| 20260901162810 | 68 | 37 | 2.0 | 5.0 | 0.00 | 0.13 | 0.09 | 79 | 1027.5 |
| 20260901162309 | 67 | 34 | 1.0 | 5.0 | 0.00 | 0.13 | 0.09 | 84 | 1027.5 |
| 20260901161551 | 66 | 37 | 1.0 | 6.0 | 0.00 | 0.13 | 0.09 | 84 | 1027.5 |
| 20260901161051 | 65 | 35 | 2.0 | 6.0 | 0.00 | 0.13 | 0.09 | 86 | 1027.4 |
| 20260901160551 | 64 | 28 | 0.0 | 5.0 | 0.00 | 0.13 | 0.09 | 87 | 1027.4 |
| 20260901160310 | 63 | 28 | 4.0 | 5.0 | 0.00 | 0.13 | 0.09 | 88 | 1027.3 |
| 20260901160039 | 63 | 27 | 1.0 | 6.0 | 0.00 | 0.13 | 0.09 | 88 | 1027.3 |
| 20260901155050 | 63 | 27 | 2.0 | 6.0 | 0.00 | 0.13 | 0.09 | 90 | 1027.2 |
| 20260901154552 | 62 | 20 | 3.0 | 6.0 | 0.00 | 0.13 | 0.09 | 91 | 1027.2 |
| 20260901154050 | 62 | 17 | 1.0 | 6.0 | 0.00 | 0.13 | 0.09 | 93 | 1027.3 |
| 20260901153815 | 62 | 23 | 2.0 | 5.0 | 0.00 | 0.13 | 0.09 | 95 | 1027.3 |
| 20260901153052 | 61 | 23 | 1.0 | 5.0 | 0.00 | 0.13 | 0.09 | 96 | 1027.2 |
| 20260901152551 | 61 | 23 | 0.0 | 5.0 | 0.00 | 0.13 | 0.09 | 95 | 1027.3 |
| 20260901152050 | 60 | 23 | 1.0 | 5.0 | 0.00 | 0.13 | 0.09 | 96 | 1027.3 |
| 20260901151551 | 60 | 23 | 1.0 | 5.0 | 0.00 | 0.13 | 0.09 | 96 | 1027.3 |
| 20260901151051 | 60 | 23 | 0.0 | 5.0 | 0.00 | 0.13 | 0.09 | 96 | 1027.3 |
| 20260901150808 | 60 | 23 | 1.0 | 4.0 | 0.00 | 0.13 | 0.09 | 96 | 1027.3 |
| 20260901150051 | 60 | 24 | 1.0 | 5.0 | 0.00 | 0.13 | 0.09 | 96 | 1027.2 |
| 20260901145551 | 60 | 24 | 2.0 | 5.0 | 0.00 | 0.13 | 0.09 | 97 | 1027.2 |
| 20260901145309 | 60 | 27 | 0.0 | 5.0 | 0.00 | 0.13 | 0.09 | 97 | 1027.3 |
| 20260901144551 | 60 | 28 | 1.0 | 5.0 | 0.00 | 0.13 | 0.09 | 97 | 1027.2 |
| 20260901144051 | 60 | 30 | 2.0 | 5.0 | 0.00 | 0.13 | 0.09 | 98 | 1027.2 |
| 20260901143551 | 60 | 28 | 2.0 | 5.0 | 0.00 | 0.13 | 0.09 | 98 | 1027.3 |
| 20260901143050 | 59 | 27 | 2.0 | 5.0 | 0.00 | 0.13 | 0.09 | 97 | 1027.2 |
| 20260901142551 | 59 | 27 | 2.0 | 5.0 | 0.00 | 0.13 | 0.09 | 98 | 1027.3 |
| 20260901142051 | 59 | 25 | 2.0 | 3.0 | 0.00 | 0.13 | 0.09 | 97 | 1027.3 |
| 20260901141551 | 58 | 25 | 0.0 | 1.0 | 0.00 | 0.13 | 0.09 | 97 | 1027.3 |
| 20260901141050 | 58 | 25 | 0.0 | 2.0 | 0.00 | 0.13 | 0.09 | 97 | 1027.2 |
| 20260901140550 | 58 | 25 | 0.0 | 2.0 | 0.00 | 0.13 | 0.09 | 97 | 1027.2 |
| 20260901140050 | 58 | 25 | 0.0 | 4.0 | 0.00 | 0.13 | 0.09 | 97 | 1027.2 |
| 20260901135551 | 58 | 25 | 0.0 | 4.0 | 0.00 | 0.13 | 0.09 | 97 | 1027.2 |
| 20260901135532 | 58 | 27 | 0.0 | 4.0 | 0.00 | 0.13 | 0.09 | 97 | 1027.0 |
| 20260901134550 | 58 | 27 | 1.0 | 4.0 | 0.00 | 0.13 | 0.09 | 97 | 1026.9 |
| 20260901134050 | 58 | 27 | 1.0 | 4.0 | 0.00 | 0.13 | 0.09 | 96 | 1026.8 |
| 20260901133550 | 58 | 27 | 1.0 | 4.0 | 0.00 | 0.13 | 0.09 | 96 | 1026.9 |
| 20260901133051 | 58 | 27 | 0.0 | 5.0 | 0.00 | 0.13 | 0.09 | 96 | 1026.9 |
| 20260901132552 | 58 | 27 | 1.0 | 5.0 | 0.00 | 0.13 | 0.09 | 96 | 1027.0 |
| 20260901132308 | 58 | 27 | 2.0 | 6.0 | 0.00 | 0.13 | 0.09 | 96 | 1026.8 |
| 20260901131550 | 58 | 25 | 2.0 | 6.0 | 0.00 | 0.13 | 0.09 | 96 | 1026.9 |
| 20260901131051 | 58 | 13 | 3.0 | 6.0 | 0.00 | 0.13 | 0.09 | 97 | 1026.9 |
| 20260901130811 | 58 | 279 | 2.0 | 4.0 | 0.00 | 0.13 | 0.09 | 97 | 1026.8 |
| 20260901130315 | 58 | 276 | 2.0 | 4.0 | 0.00 | 0.13 | 0.09 | 97 | 1026.6 |
| 20260901125550 | 58 | 274 | 1.0 | 4.0 | 0.01 | 0.13 | 0.09 | 97 | 1026.6 |
| 20260901125311 | 58 | 274 | 2.0 | 4.0 | 0.01 | 0.13 | 0.09 | 97 | 1026.6 |
| 20260901124550 | 58 | 274 | 0.0 | 2.0 | 0.01 | 0.13 | 0.09 | 97 | 1026.7 |
| 20260901124051 | 58 | 274 | 0.0 | 3.0 | 0.01 | 0.13 | 0.09 | 97 | 1026.6 |
| 20260901123550 | 58 | 274 | 0.0 | 3.0 | 0.01 | 0.13 | 0.09 | 97 | 1026.7 |
| 20260901123050 | 58 | 274 | 0.0 | 3.0 | 0.01 | 0.13 | 0.09 | 97 | 1026.6 |
| 20260901122551 | 58 | 274 | 1.0 | 4.0 | 0.01 | 0.13 | 0.09 | 96 | 1026.3 |
| 20260901122311 | 58 | 272 | 2.0 | 5.0 | 0.01 | 0.13 | 0.09 | 97 | 1026.3 |
| 20260901121550 | 58 | 265 | 1.0 | 5.0 | 0.01 | 0.13 | 0.09 | 96 | 1026.4 |
| 20260901121051 | 58 | 179 | 0.0 | 3.0 | 0.01 | 0.13 | 0.09 | 96 | 1026.4 |
| 20260901120551 | 58 | 179 | 1.0 | 3.0 | 0.01 | 0.13 | 0.09 | 96 | 1026.6 |
| 20260901120051 | 58 | 176 | 0.0 | 2.0 | 0.01 | 0.13 | 0.09 | 96 | 1026.6 |
| 20260901115550 | 58 | 176 | 0.0 | 2.0 | 0.00 | 0.12 | 0.08 | 96 | 1026.7 |
| 20260901115050 | 58 | 176 | 0.0 | 0.0 | 0.00 | 0.12 | 0.08 | 96 | 1026.7 |
| 20260901114550 | 58 | 176 | 0.0 | 0.0 | 0.00 | 0.12 | 0.08 | 96 | 1026.9 |
| 20260901114050 | 58 | 176 | 0.0 | 0.0 | 0.00 | 0.13 | 0.08 | 96 | 1026.9 |
| 20260901113550 | 58 | 176 | 0.0 | 0.0 | 0.00 | 0.13 | 0.08 | 96 | 1026.9 |
| 20260901113051 | 58 | 176 | 0.0 | 0.0 | 0.00 | 0.13 | 0.08 | 96 | 1027.0 |
| 20260901112550 | 58 | 176 | 0.0 | 0.0 | 0.00 | 0.13 | 0.08 | 96 | 1026.9 |
| 20260901112318 | 58 | 176 | 0.0 | 0.0 | 0.00 | 0.15 | 0.08 | 96 | 1026.9 |
| 20260901111817 | 58 | 176 | 0.0 | 0.0 | 0.00 | 0.18 | 0.08 | 96 | 1027.0 |
| 20260901111050 | 58 | 176 | 0.0 | 0.0 | 0.00 | 0.18 | 0.08 | 96 | 1027.0 |
| 20260901110550 | 58 | 176 | 0.0 | 0.0 | 0.00 | 0.18 | 0.08 | 96 | 1027.0 |
| 20260901110050 | 58 | 176 | 0.0 | 0.0 | 0.00 | 0.18 | 0.08 | 96 | 1026.9 |
| 20260901105808 | 58 | 176 | 0.0 | 2.0 | 0.01 | 0.18 | 0.08 | 96 | 1026.9 |
| 20260901105050 | 58 | 176 | 0.0 | 2.0 | 0.02 | 0.18 | 0.08 | 95 | 1026.9 |
| 20260901104551 | 58 | 176 | 0.0 | 0.0 | 0.04 | 0.18 | 0.08 | 95 | 1026.9 |
| 20260901104051 | 58 | 176 | 0.0 | 0.0 | 0.05 | 0.18 | 0.08 | 95 | 1026.9 |
| 20260901103550 | 59 | 176 | 0.0 | 2.0 | 0.05 | 0.18 | 0.08 | 95 | 1026.9 |
| 20260901103051 | 59 | 176 | 0.0 | 4.0 | 0.06 | 0.18 | 0.08 | 95 | 1026.8 |
| 20260901102550 | 60 | 176 | 1.0 | 4.0 | 0.07 | 0.18 | 0.08 | 95 | 1026.8 |
| 20260901102050 | 60 | 231 | 0.0 | 3.0 | 0.07 | 0.18 | 0.08 | 96 | 1026.6 |
| 20260901101811 | 60 | 231 | 0.0 | 1.0 | 0.07 | 0.18 | 0.08 | 96 | 1026.3 |
| 20260901101050 | 60 | 231 | 0.0 | 1.0 | 0.07 | 0.18 | 0.08 | 96 | 1026.6 |
| 20260901100551 | 60 | 231 | 0.0 | 1.0 | 0.07 | 0.18 | 0.08 | 96 | 1026.4 |
| 20260901100049 | 60 | 231 | 0.0 | 1.0 | 0.07 | 0.18 | 0.08 | 96 | 1026.7 |
| 20260901095550 | 60 | 231 | 0.0 | 0.0 | 0.06 | 0.11 | 0.07 | 96 | 1026.9 |
| 20260901095310 | 60 | 231 | 0.0 | 0.0 | 0.05 | 0.11 | 0.06 | 96 | 1026.9 |
| 20260901094550 | 60 | 231 | 0.0 | 0.0 | 0.03 | 0.11 | 0.04 | 96 | 1026.9 |
| 20260901094050 | 60 | 231 | 0.0 | 0.0 | 0.02 | 0.11 | 0.03 | 96 | 1027.0 |
| 20260901093808 | 60 | 231 | 0.0 | 0.0 | 0.02 | 0.11 | 0.03 | 96 | 1027.3 |
| 20260901093315 | 60 | 231 | 0.0 | 0.0 | 0.01 | 0.11 | 0.02 | 95 | 1026.9 |
| 20260901092551 | 60 | 231 | 0.0 | 4.0 | 0.00 | 0.11 | 0.01 | 95 | 1027.2 |
| 20260901092050 | 60 | 231 | 0.0 | 4.0 | 0.00 | 0.11 | 0.01 | 95 | 1027.2 |
| 20260901091550 | 60 | 233 | 1.0 | 4.0 | 0.00 | 0.11 | 0.01 | 95 | 1027.3 |
| 20260901091050 | 60 | 233 | 1.0 | 4.0 | 0.00 | 0.11 | 0.01 | 96 | 1027.2 |
| 20260901090551 | 60 | 235 | 0.0 | 4.0 | 0.00 | 0.11 | 0.01 | 96 | 1027.2 |
| 20260901090050 | 60 | 237 | 1.0 | 4.0 | 0.00 | 0.11 | 0.01 | 96 | 1027.2 |
| 20260901085550 | 61 | 237 | 0.0 | 5.0 | 0.00 | 0.11 | 0.01 | 96 | 1027.2 |
| 20260901085528 | 61 | 241 | 2.0 | 5.0 | 0.00 | 0.11 | 0.01 | 96 | 1027.2 |
| 20260901084550 | 60 | 266 | 2.0 | 4.0 | 0.00 | 0.11 | 0.01 | 96 | 1027.2 |
| 20260901084306 | 60 | 283 | 2.0 | 4.0 | 0.01 | 0.11 | 0.01 | 96 | 1026.9 |
| 20260901083550 | 60 | 305 | 0.0 | 3.0 | 0.01 | 0.11 | 0.01 | 96 | 1026.6 |
| 20260901083050 | 60 | 306 | 1.0 | 3.0 | 0.01 | 0.11 | 0.01 | 95 | 1026.6 |
| 20260901082549 | 60 | 313 | 0.0 | 0.0 | 0.01 | 0.11 | 0.01 | 95 | 1026.3 |
| 20260901082051 | 60 | 313 | 0.0 | 0.0 | 0.01 | 0.11 | 0.01 | 95 | 1026.3 |
| 20260901081551 | 60 | 313 | 0.0 | 0.0 | 0.01 | 0.11 | 0.01 | 95 | 1026.3 |
| 20260901081050 | 60 | 313 | 0.0 | 0.0 | 0.01 | 0.11 | 0.01 | 95 | 1026.4 |
| 20260901080550 | 60 | 313 | 0.0 | 0.0 | 0.01 | 0.11 | 0.01 | 95 | 1026.4 |
| 20260901080050 | 60 | 313 | 0.0 | 3.0 | 0.01 | 0.11 | 0.01 | 95 | 1026.3 |
| 20260901075550 | 61 | 313 | 0.0 | 3.0 | 0.01 | 0.10 | 0.01 | 95 | 1026.2 |
| 20260901075314 | 61 | 313 | 1.0 | 2.0 | 0.01 | 0.10 | 0.01 | 95 | 1026.1 |
| 20260901074550 | 61 | 313 | 0.0 | 0.0 | 0.01 | 0.10 | 0.01 | 95 | 1026.1 |
| 20260901074050 | 61 | 313 | 0.0 | 0.0 | 0.00 | 0.10 | 0.00 | 95 | 1026.2 |
| 20260901073551 | 61 | 313 | 0.0 | 0.0 | 0.00 | 0.10 | 0.00 | 95 | 1026.2 |
| 20260901073050 | 61 | 313 | 0.0 | 0.0 | 0.00 | 0.10 | 0.00 | 95 | 1026.4 |
| 20260901072550 | 61 | 313 | 0.0 | 0.0 | 0.00 | 0.10 | 0.00 | 95 | 1026.4 |
| 20260901072050 | 61 | 313 | 0.0 | 0.0 | 0.00 | 0.10 | 0.00 | 95 | 1026.6 |
| 20260901071550 | 61 | 313 | 0.0 | 1.0 | 0.00 | 0.10 | 0.00 | 95 | 1026.4 |
| 20260901071050 | 61 | 313 | 0.0 | 1.0 | 0.00 | 0.10 | 0.00 | 95 | 1026.3 |
| 20260901070550 | 61 | 313 | 0.0 | 0.0 | 0.00 | 0.10 | 0.00 | 95 | 1026.3 |
| 20260901070050 | 61 | 313 | 0.0 | 0.0 | 0.00 | 0.10 | 0.00 | 94 | 1026.6 |
| 20260901065551 | 61 | 313 | 0.0 | 0.0 | 0.00 | 0.10 | 0.00 | 94 | 1026.4 |
| 20260901065050 | 61 | 313 | 0.0 | 0.0 | 0.00 | 0.10 | 0.00 | 94 | 1026.3 |
| 20260901064550 | 61 | 313 | 0.0 | 0.0 | 0.00 | 0.10 | 0.00 | 94 | 1026.4 |
| 20260901064312 | 61 | 313 | 0.0 | 1.0 | 0.00 | 0.10 | 0.00 | 94 | 1026.3 |
| 20260901063550 | 61 | 313 | 0.0 | 2.0 | 0.00 | 0.10 | 0.00 | 94 | 1026.3 |
| 20260901063050 | 61 | 313 | 0.0 | 2.0 | 0.00 | 0.10 | 0.00 | 94 | 1026.3 |
| 20260901062550 | 61 | 313 | 1.0 | 3.0 | 0.00 | 0.10 | 0.00 | 94 | 1026.2 |
| 20260901062049 | 61 | 313 | 0.0 | 3.0 | 0.00 | 0.10 | 0.00 | 94 | 1026.3 |
| 20260901061550 | 61 | 312 | 1.0 | 3.0 | 0.00 | 0.10 | 0.00 | 94 | 1026.2 |
| 20260901061049 | 61 | 312 | 0.0 | 4.0 | 0.00 | 0.10 | 0.00 | 94 | 1026.1 |
| 20260901060550 | 61 | 312 | 0.0 | 4.0 | 0.00 | 0.10 | 0.00 | 94 | 1026.2 |
| 20260901060447 | 61 | 306 | 0.0 | 4.0 | 0.00 | 0.10 | 0.00 | 94 | 1026.2 |
| 20260901055551 | 60 | 305 | 2.0 | 4.0 | 0.00 | 0.10 | 0.10 | 93 | 1026.2 |
| 20260901055049 | 60 | 290 | 0.0 | 0.0 | 0.00 | 0.10 | 0.10 | 93 | 1026.2 |
| 20260901054550 | 61 | 289 | 0.0 | 0.0 | 0.01 | 0.10 | 0.10 | 93 | 1026.2 |
| 20260901054050 | 61 | 289 | 0.0 | 0.0 | 0.01 | 0.10 | 0.10 | 92 | 1026.3 |
| 20260901053549 | 61 | 289 | 0.0 | 0.0 | 0.01 | 0.10 | 0.10 | 92 | 1026.2 |
| 20260901053050 | 61 | 289 | 0.0 | 0.0 | 0.01 | 0.10 | 0.10 | 92 | 1026.1 |
| 20260901052550 | 61 | 289 | 0.0 | 1.0 | 0.01 | 0.10 | 0.10 | 92 | 1026.1 |
| 20260901052050 | 61 | 289 | 0.0 | 1.0 | 0.01 | 0.10 | 0.10 | 92 | 1025.9 |
| 20260901051550 | 61 | 289 | 0.0 | 3.0 | 0.01 | 0.10 | 0.10 | 92 | 1026.1 |
| 20260901051049 | 62 | 289 | 0.0 | 3.0 | 0.01 | 0.10 | 0.10 | 92 | 1026.2 |
| 20260901050813 | 62 | 289 | 0.0 | 2.0 | 0.01 | 0.10 | 0.10 | 92 | 1026.4 |
| 20260901050310 | 62 | 289 | 0.0 | 3.0 | 0.01 | 0.10 | 0.10 | 92 | 1026.4 |
| 20260901045550 | 62 | 289 | 1.0 | 4.0 | 0.01 | 0.09 | 0.10 | 92 | 1026.3 |
| 20260901045050 | 62 | 289 | 0.0 | 4.0 | 0.01 | 0.09 | 0.10 | 92 | 1026.6 |
| 20260901044550 | 62 | 289 | 0.0 | 1.0 | 0.01 | 0.09 | 0.09 | 92 | 1026.9 |
| 20260901044050 | 62 | 289 | 0.0 | 0.0 | 0.01 | 0.09 | 0.09 | 91 | 1027.3 |
| 20260901043550 | 62 | 289 | 0.0 | 3.0 | 0.01 | 0.09 | 0.09 | 91 | 1026.9 |
| 20260901043050 | 62 | 289 | 0.0 | 3.0 | 0.01 | 0.09 | 0.09 | 91 | 1027.0 |
| 20260901042550 | 62 | 289 | 0.0 | 2.0 | 0.01 | 0.09 | 0.09 | 90 | 1027.0 |
| 20260901042050 | 62 | 289 | 0.0 | 5.0 | 0.01 | 0.09 | 0.09 | 90 | 1026.9 |
| 20260901041550 | 62 | 289 | 1.0 | 7.0 | 0.01 | 0.09 | 0.09 | 89 | 1026.9 |
| 20260901041050 | 62 | 286 | 4.0 | 9.0 | 0.01 | 0.09 | 0.09 | 89 | 1026.8 |
| 20260901040550 | 62 | 283 | 5.0 | 9.0 | 0.01 | 0.09 | 0.09 | 89 | 1026.9 |
| 20260901040050 | 63 | 8 | 0.0 | 3.0 | 0.01 | 0.09 | 0.09 | 89 | 1026.8 |
| 20260901035550 | 63 | 8 | 1.0 | 3.0 | 0.01 | 0.08 | 0.09 | 89 | 1026.8 |
| 20260901035050 | 63 | 8 | 0.0 | 0.0 | 0.01 | 0.08 | 0.09 | 88 | 1026.9 |
| 20260901034550 | 63 | 8 | 0.0 | 0.0 | 0.00 | 0.08 | 0.08 | 87 | 1026.9 |
| 20260901034050 | 62 | 8 | 0.0 | 0.0 | 0.00 | 0.08 | 0.08 | 85 | 1026.9 |
| 20260901033550 | 62 | 8 | 0.0 | 0.0 | 0.00 | 0.08 | 0.08 | 85 | 1027.0 |
| 20260901033050 | 62 | 8 | 0.0 | 0.0 | 0.00 | 0.08 | 0.08 | 86 | 1027.2 |
| 20260901032550 | 62 | 8 | 0.0 | 0.0 | 0.00 | 0.08 | 0.08 | 86 | 1027.2 |
| 20260901032314 | 62 | 8 | 0.0 | 0.0 | 0.00 | 0.08 | 0.08 | 86 | 1027.0 |
| 20260901031549 | 62 | 8 | 0.0 | 0.0 | 0.00 | 0.08 | 0.08 | 86 | 1026.8 |
| 20260901031314 | 62 | 8 | 0.0 | 0.0 | 0.00 | 0.08 | 0.08 | 85 | 1026.4 |
| 20260901030549 | 62 | 8 | 0.0 | 1.0 | 0.00 | 0.08 | 0.08 | 85 | 1026.7 |
| 20260901030050 | 62 | 8 | 0.0 | 1.0 | 0.00 | 0.08 | 0.08 | 85 | 1026.4 |
| 20260901025549 | 62 | 8 | 0.0 | 3.0 | 0.00 | 0.08 | 0.08 | 85 | 1026.2 |
| 20260901025050 | 62 | 8 | 0.0 | 3.0 | 0.00 | 0.08 | 0.08 | 84 | 1026.2 |
| 20260901024550 | 62 | 8 | 0.0 | 3.0 | 0.00 | 0.08 | 0.08 | 85 | 1026.1 |
| 20260901024049 | 62 | 8 | 0.0 | 4.0 | 0.00 | 0.08 | 0.08 | 84 | 1026.1 |
| 20260901023550 | 62 | 8 | 2.0 | 6.0 | 0.00 | 0.08 | 0.08 | 85 | 1025.8 |
| 20260901023049 | 62 | 8 | 2.0 | 6.0 | 0.00 | 0.08 | 0.08 | 84 | 1025.7 |
| 20260901022549 | 62 | 10 | 2.0 | 5.0 | 0.00 | 0.08 | 0.08 | 84 | 1026.1 |
| 20260901022049 | 62 | 11 | 2.0 | 4.0 | 0.00 | 0.08 | 0.08 | 84 | 1026.1 |
| 20260901021549 | 63 | 11 | 0.0 | 3.0 | 0.00 | 0.08 | 0.08 | 84 | 1026.2 |
| 20260901021050 | 63 | 11 | 0.0 | 3.0 | 0.00 | 0.08 | 0.08 | 84 | 1026.2 |
| 20260901020550 | 63 | 11 | 1.0 | 4.0 | 0.00 | 0.08 | 0.08 | 85 | 1025.9 |
| 20260901020050 | 63 | 11 | 2.0 | 7.0 | 0.00 | 0.08 | 0.08 | 84 | 1026.2 |
| 20260901015549 | 63 | 11 | 3.0 | 7.0 | 0.01 | 0.08 | 0.08 | 84 | 1026.1 |
| 20260901015050 | 63 | 16 | 3.0 | 6.0 | 0.02 | 0.08 | 0.08 | 84 | 1026.1 |
| 20260901014549 | 63 | 16 | 4.0 | 7.0 | 0.02 | 0.08 | 0.08 | 84 | 1025.9 |
| 20260901014310 | 63 | 16 | 3.0 | 7.0 | 0.02 | 0.08 | 0.08 | 84 | 1025.9 |
| 20260901013549 | 63 | 24 | 3.0 | 6.0 | 0.02 | 0.08 | 0.08 | 83 | 1025.9 |
| 20260901013049 | 64 | 25 | 3.0 | 6.0 | 0.02 | 0.08 | 0.08 | 83 | 1025.9 |
| 20260901012549 | 64 | 32 | 2.0 | 6.0 | 0.02 | 0.08 | 0.08 | 83 | 1026.1 |
| 20260901012050 | 64 | 38 | 4.0 | 9.0 | 0.02 | 0.08 | 0.08 | 82 | 1025.9 |
| 20260901011549 | 64 | 39 | 4.0 | 9.0 | 0.02 | 0.08 | 0.08 | 81 | 1025.9 |
| 20260901011050 | 65 | 62 | 3.0 | 11.0 | 0.02 | 0.08 | 0.08 | 80 | 1026.1 |
| 20260901010549 | 66 | 58 | 5.0 | 11.0 | 0.02 | 0.08 | 0.08 | 78 | 1025.8 |
| 20260901010528 | 67 | 66 | 6.0 | 11.0 | 0.02 | 0.07 | 0.07 | 75 | 1026.1 |
| 20260901005550 | 70 | 71 | 4.0 | 14.0 | 0.01 | 0.06 | 0.06 | 70 | 1026.1 |
| 20260901005049 | 71 | 71 | 7.0 | 14.0 | 0.00 | 0.06 | 0.06 | 66 | 1025.8 |
| 20260901004550 | 72 | 72 | 6.0 | 17.0 | 0.00 | 0.06 | 0.06 | 59 | 1025.7 |
| 20260901004049 | 73 | 69 | 6.0 | 17.0 | 0.00 | 0.06 | 0.06 | 56 | 1025.5 |
| 20260901003549 | 74 | 27 | 6.0 | 12.0 | 0.00 | 0.06 | 0.06 | 55 | 1025.5 |
| 20260901003048 | 74 | 34 | 5.0 | 13.0 | 0.00 | 0.06 | 0.06 | 53 | 1025.3 |
| 20260901002549 | 75 | 51 | 8.0 | 13.0 | 0.00 | 0.06 | 0.06 | 51 | 1025.2 |
| 20260901002049 | 75 | 51 | 5.0 | 11.0 | 0.00 | 0.06 | 0.06 | 49 | 1025.1 |
| 20260901001548 | 76 | 42 | 5.0 | 13.0 | 0.00 | 0.06 | 0.06 | 48 | 1024.9 |
| 20260901001049 | 76 | 38 | 6.0 | 13.0 | 0.00 | 0.06 | 0.06 | 48 | 1024.7 |
| 20260901000548 | 76 | 72 | 3.0 | 11.0 | 0.00 | 0.06 | 0.06 | 48 | 1024.6 |
| 20260901000313 | 77 | 35 | 7.0 | 14.0 | 0.00 | 0.06 | 0.06 | 47 | 1024.5 |
| 20260831235550 | 77 | 47 | 3.0 | 14.0 | 0.00 | 0.06 | 0.06 | 46 | 1024.4 |
| 20260831235049 | 78 | 147 | 5.0 | 16.0 | 0.00 | 0.06 | 0.06 | 45 | 1024.2 |
| 20260831234548 | 78 | 113 | 4.0 | 16.0 | 0.00 | 0.06 | 0.06 | 44 | 1024.1 |
| 20260831234049 | 78 | 117 | 6.0 | 14.0 | 0.00 | 0.06 | 0.06 | 42 | 1024.0 |
| 20260831233809 | 78 | 123 | 2.0 | 6.0 | 0.00 | 0.06 | 0.06 | 43 | 1023.8 |
| 20260831233048 | 78 | 114 | 3.0 | 10.0 | 0.00 | 0.06 | 0.06 | 43 | 1023.8 |
| 20260831232549 | 78 | 107 | 4.0 | 11.0 | 0.00 | 0.06 | 0.06 | 43 | 1023.5 |
| 20260831232049 | 79 | 110 | 4.0 | 12.0 | 0.00 | 0.06 | 0.06 | 42 | 1023.4 |
| 20260831231548 | 79 | 109 | 6.0 | 12.0 | 0.00 | 0.06 | 0.06 | 41 | 1023.4 |
| 20260831231049 | 80 | 104 | 6.0 | 11.0 | 0.00 | 0.06 | 0.06 | 41 | 1023.3 |
| 20260831230549 | 80 | 152 | 7.0 | 13.0 | 0.00 | 0.06 | 0.06 | 39 | 1023.4 |
| 20260831230309 | 81 | 155 | 6.0 | 13.0 | 0.00 | 0.06 | 0.06 | 39 | 1023.4 |
| 20260831225549 | 82 | 99 | 3.0 | 14.0 | 0.00 | 0.06 | 0.06 | 39 | 1023.5 |
| 20260831225048 | 83 | 144 | 8.0 | 14.0 | 0.00 | 0.06 | 0.06 | 37 | 1023.5 |
| 20260831224548 | 84 | 69 | 5.0 | 12.0 | 0.00 | 0.06 | 0.06 | 36 | 1023.4 |
| 20260831224048 | 85 | 52 | 3.0 | 10.0 | 0.00 | 0.06 | 0.06 | 36 | 1023.3 |
| 20260831223549 | 85 | 72 | 6.0 | 12.0 | 0.00 | 0.06 | 0.06 | 36 | 1023.4 |
| 20260831223048 | 86 | 23 | 6.0 | 12.0 | 0.00 | 0.06 | 0.06 | 35 | 1023.4 |
| 20260831222549 | 86 | 41 | 4.0 | 11.0 | 0.00 | 0.06 | 0.06 | 35 | 1023.4 |
| 20260831222049 | 86 | 86 | 5.0 | 12.0 | 0.00 | 0.06 | 0.06 | 35 | 1023.4 |
| 20260831221549 | 87 | 92 | 6.0 | 12.0 | 0.00 | 0.06 | 0.06 | 34 | 1023.4 |
| 20260831221049 | 88 | 65 | 4.0 | 12.0 | 0.00 | 0.06 | 0.06 | 33 | 1023.3 |
| 20260831220548 | 89 | 38 | 6.0 | 10.0 | 0.00 | 0.06 | 0.06 | 34 | 1023.4 |
| 20260831220050 | 88 | 44 | 4.0 | 10.0 | 0.00 | 0.06 | 0.06 | 33 | 1023.3 |
| 20260831215548 | 88 | 147 | 4.0 | 12.0 | 0.00 | 0.06 | 0.06 | 29 | 1023.4 |
| 20260831215048 | 89 | 148 | 3.0 | 12.0 | 0.00 | 0.06 | 0.06 | 29 | 1023.3 |
| 20260831214549 | 88 | 213 | 5.0 | 12.0 | 0.00 | 0.06 | 0.06 | 30 | 1023.3 |
| 20260831214050 | 88 | 227 | 6.0 | 14.0 | 0.00 | 0.06 | 0.06 | 30 | 1023.3 |
| 20260831213549 | 87 | 168 | 7.0 | 11.0 | 0.00 | 0.06 | 0.06 | 31 | 1023.4 |
| 20260831213049 | 87 | 216 | 4.0 | 16.0 | 0.00 | 0.06 | 0.06 | 32 | 1023.5 |
| 20260831212549 | 87 | 197 | 5.0 | 16.0 | 0.00 | 0.06 | 0.06 | 32 | 1023.6 |
| 20260831212049 | 87 | 214 | 5.0 | 13.0 | 0.00 | 0.06 | 0.06 | 31 | 1023.6 |
| 20260831211550 | 86 | 197 | 7.0 | 13.0 | 0.00 | 0.06 | 0.06 | 32 | 1023.9 |
| 20260831211049 | 86 | 189 | 6.0 | 12.0 | 0.00 | 0.06 | 0.06 | 31 | 1023.8 |
| 20260831210811 | 87 | 152 | 4.0 | 11.0 | 0.00 | 0.06 | 0.06 | 31 | 1023.9 |
| 20260831210048 | 87 | 178 | 3.0 | 12.0 | 0.00 | 0.06 | 0.06 | 33 | 1024.0 |
| 20260831205548 | 87 | 185 | 5.0 | 12.0 | 0.00 | 0.06 | 0.06 | 32 | 1024.0 |
| 20260831205047 | 87 | 269 | 3.0 | 10.0 | 0.00 | 0.06 | 0.06 | 32 | 1024.0 |
| 20260831204547 | 87 | 158 | 3.0 | 11.0 | 0.00 | 0.06 | 0.06 | 33 | 1024.0 |
| 20260831204048 | 86 | 193 | 5.0 | 11.0 | 0.00 | 0.06 | 0.06 | 35 | 1024.0 |
| 20260831203547 | 86 | 278 | 6.0 | 16.0 | 0.00 | 0.06 | 0.06 | 33 | 1023.9 |
| 20260831203309 | 87 | 271 | 8.0 | 16.0 | 0.00 | 0.06 | 0.06 | 31 | 1024.1 |
| 20260831202547 | 88 | 244 | 4.0 | 14.0 | 0.00 | 0.06 | 0.06 | 32 | 1024.0 |
| 20260831202048 | 88 | 185 | 3.0 | 15.0 | 0.00 | 0.06 | 0.06 | 30 | 1024.1 |
| 20260831201548 | 89 | 209 | 6.0 | 15.0 | 0.00 | 0.06 | 0.06 | 31 | 1024.1 |
| 20260831201048 | 89 | 244 | 8.0 | 13.0 | 0.00 | 0.06 | 0.06 | 28 | 1024.0 |
| 20260831200548 | 89 | 247 | 4.0 | 11.0 | 0.00 | 0.06 | 0.06 | 28 | 1024.2 |
| 20260831200047 | 89 | 202 | 5.0 | 12.0 | 0.00 | 0.06 | 0.06 | 29 | 1024.2 |
| 20260831195545 | 89 | 278 | 7.0 | 12.0 | 0.00 | 0.06 | 0.06 | 30 | 1024.4 |
| 20260831195044 | 89 | 272 | 6.0 | 12.0 | 0.00 | 0.06 | 0.06 | 29 | 1024.4 |
| 20260831194802 | 88 | 240 | 4.0 | 14.0 | 0.00 | 0.06 | 0.06 | 31 | 1024.5 |
| 20260831194045 | 87 | 197 | 3.0 | 14.0 | 0.00 | 0.06 | 0.06 | 31 | 1024.6 |
| 20260831193544 | 87 | 254 | 8.0 | 14.0 | 0.00 | 0.06 | 0.06 | 32 | 1024.6 |
| 20260831193044 | 87 | 206 | 4.0 | 9.0 | 0.00 | 0.06 | 0.06 | 33 | 1024.9 |
| 20260831192544 | 87 | 137 | 4.0 | 10.0 | 0.00 | 0.06 | 0.06 | 31 | 1024.9 |
| 20260831192044 | 87 | 200 | 7.0 | 12.0 | 0.00 | 0.06 | 0.06 | 30 | 1024.9 |
| 20260831191805 | 87 | 154 | 6.0 | 12.0 | 0.00 | 0.06 | 0.06 | 31 | 1025.2 |
| 20260831191044 | 86 | 120 | 6.0 | 11.0 | 0.00 | 0.06 | 0.06 | 31 | 1025.2 |
| 20260831190812 | 86 | 124 | 1.0 | 10.0 | 0.00 | 0.06 | 0.06 | 32 | 1025.3 |
| 20260831190044 | 85 | 131 | 6.0 | 10.0 | 0.00 | 0.06 | 0.06 | 33 | 1025.3 |
| 20260831185545 | 84 | 142 | 1.0 | 9.0 | 0.00 | 0.06 | 0.06 | 34 | 1025.5 |
| 20260831185044 | 84 | 128 | 2.0 | 9.0 | 0.00 | 0.06 | 0.06 | 34 | 1025.5 |
| 20260831184812 | 84 | 131 | 4.0 | 7.0 | 0.00 | 0.06 | 0.06 | 34 | 1025.7 |
| 20260831184042 | 83 | 34 | 1.0 | 4.0 | 0.00 | 0.06 | 0.06 | 36 | 1025.7 |
| 20260831183541 | 83 | 35 | 1.0 | 3.0 | 0.00 | 0.06 | 0.06 | 34 | 1025.9 |
| 20260831183041 | 83 | 35 | 1.0 | 3.0 | 0.00 | 0.06 | 0.06 | 36 | 1026.1 |
| 20260831182541 | 83 | 35 | 2.0 | 3.0 | 0.00 | 0.06 | 0.06 | 35 | 1026.1 |
| 20260831182042 | 83 | 35 | 1.0 | 3.0 | 0.00 | 0.06 | 0.06 | 33 | 1026.1 |
| 20260831181542 | 83 | 35 | 1.0 | 5.0 | 0.00 | 0.06 | 0.06 | 34 | 1026.2 |
| 20260831181041 | 82 | 35 | 1.0 | 5.0 | 0.00 | 0.06 | 0.06 | 36 | 1026.2 |
| 20260831180541 | 82 | 54 | 0.0 | 5.0 | 0.00 | 0.06 | 0.06 | 40 | 1026.2 |
| 20260831180532 | 81 | 55 | 1.0 | 5.0 | 0.00 | 0.06 | 0.06 | 39 | 1026.3 |
| 20260831175541 | 81 | 55 | 1.0 | 6.0 | 0.00 | 0.06 | 0.06 | 38 | 1026.3 |
| 20260831175041 | 80 | 45 | 1.0 | 6.0 | 0.00 | 0.06 | 0.06 | 38 | 1026.3 |
| 20260831174540 | 80 | 47 | 2.0 | 6.0 | 0.00 | 0.06 | 0.06 | 41 | 1026.3 |
| 20260831174258 | 79 | 30 | 2.0 | 6.0 | 0.00 | 0.06 | 0.06 | 43 | 1026.4 |
| 20260831173538 | 78 | 31 | 2.0 | 6.0 | 0.00 | 0.06 | 0.06 | 43 | 1026.4 |
| 20260831173038 | 78 | 44 | 3.0 | 7.0 | 0.00 | 0.06 | 0.06 | 44 | 1026.4 |
| 20260831172539 | 78 | 0 | 4.0 | 10.0 | 0.00 | 0.06 | 0.06 | 44 | 1026.4 |
| 20260831172255 | 77 | 47 | 4.0 | 10.0 | 0.00 | 0.06 | 0.06 | 46 | 1026.4 |
| 20260831171532 | 77 | 42 | 2.0 | 7.0 | 0.00 | 0.06 | 0.06 | 44 | 1026.7 |
| 20260831171523 | 77 | 1 | 4.0 | 7.0 | 0.00 | 0.06 | 0.06 | 44 | 1026.7 |
| 20260831170532 | 77 | 23 | 3.0 | 7.0 | 0.00 | 0.06 | 0.06 | 45 | 1026.8 |
| 20260831170032 | 77 | 30 | 3.0 | 7.0 | 0.00 | 0.06 | 0.06 | 46 | 1026.7 |
| 20260831165751 | 76 | 1 | 4.0 | 7.0 | 0.00 | 0.06 | 0.06 | 48 | 1026.8 |
| 20260831165032 | 76 | 7 | 3.0 | 9.0 | 0.00 | 0.06 | 0.06 | 46 | 1026.8 |
| 20260831164532 | 76 | 0 | 5.0 | 10.0 | 0.00 | 0.06 | 0.06 | 44 | 1026.8 |
| 20260831164032 | 76 | 6 | 3.0 | 15.0 | 0.00 | 0.06 | 0.06 | 46 | 1026.8 |
| 20260831163531 | 77 | 18 | 4.0 | 15.0 | 0.00 | 0.06 | 0.06 | 46 | 1026.8 |